Station VDZA2 - 9454240 - Valdez, AK Image indicating link to RSS feed of recent meteorological observations for station VDZA2


Conditions at VDZA2 as of
(11:48 pm AKDT on 05/28/2024)
0748 GMT on 05/29/2024:
     

Click on the graph icon in the table below to see a time series plot of the last five days of that observation.

5-day plot - Wind Direction Wind Direction (WDIR): E ( 80 deg true )
5-day plot - Wind Speed Wind Speed (WSPD): 2.9 kts
5-day plot - Wind Gust Wind Gust (GST): 4.1 kts
5-day plot - Atmospheric Pressure Atmospheric Pressure (PRES):29.97 in
5-day plot - Air Temperature Air Temperature (ATMP): 43.2 °F
5-day plot - Water Temperature Water Temperature (WTMP): 50.7 °F
5-day plot - Wind Chill Wind Chill (CHILL): 41.5 °F
5-day plot - Wind Speed at 10 Meters Wind Speed at 10 meters (WSPD10M): 3.9 kts
5-day plot - Wind Speed at 20 Meters Wind Speed at 20 meters (WSPD20M): 3.9 kts
5-day plot -  Wind Speed, Wind Gust and Atmospheric Pressure Combined plot of Wind Speed, Gust, and Air Pressure
NOS Water Level Observation Network Water Level
Previous observations
TIME
(AKDT)
5-day plot - Wind Direction
WDIR
 
5-day plot - Wind Speed
WSPD
kts
5-day plot - Wind Gust
GST
kts
5-day plot - Wave Height
WVHT
ft
5-day plot - Dominant Wave Period
DPD
sec
5-day plot - Average Wave Period
APD
sec
5-day plot - Mean Wave Direction
MWD
 
5-day plot - Atmospheric Pressure
PRES
in
5-day plot - Pressure Tendency
PTDY
in
5-day plot - Air Temperature
ATMP
°F
5-day plot - Water Temperature
WTMP
°F
5-day plot - Dew Point
DEWP
°F
5-day plot - Salinity
SAL
psu
5-day plot - Visibility
VIS
nmi
5-day plot - Tide (above MLLW)
TIDE
ft
2024-05-28 11:42 pm E 2.9 5.1----29.97- 42.8 50.7----
2024-05-28 11:36 pm E 1.9 4.1----29.96- 43.0 50.7----
2024-05-28 11:30 pm E 4.1 5.1----29.96- 43.3 50.9----
2024-05-28 11:24 pm E 4.1 7.0----29.96- 43.2 50.9----
2024-05-28 11:18 pm E 5.1 6.0----29.96- 43.0 50.9----
2024-05-28 11:12 pm E 2.9 7.0----29.96- 43.0 50.7----
2024-05-28 11:06 pm E 5.1 7.0----29.96- 43.0 50.5----
2024-05-28 11:00 pm E 4.1 7.0----29.96+0.03 43.0 50.7----
2024-05-28 10:54 pm E 4.1 7.0----29.96- 43.0 50.7----
2024-05-28 10:48 pm E 5.1 7.0----29.96- 43.2 50.7----
2024-05-28 10:42 pm E 6.0 8.0----29.96- 43.0 50.7----
2024-05-28 10:36 pm E 5.1 8.0----29.96- 43.5 50.7----
2024-05-28 10:30 pm E 7.0 8.9----29.96- 43.3 50.7----
2024-05-28 10:24 pm E 6.0 8.0----29.96- 43.7 50.7----
2024-05-28 10:18 pmESE 7.0 8.0----29.95- 43.9 50.5----
2024-05-28 10:12 pm E 5.1 6.0----29.95- 44.1 50.5----
2024-05-28 10:06 pm SE 4.1 5.1----29.95- 44.8 50.2----
2024-05-28 10:00 pm W 2.9 6.0----29.95+0.01 45.7 50.2----
2024-05-28 09:54 pm- 0.0 2.9----29.95- 45.7 50.0----
2024-05-28 09:48 pmWNW 1.9 5.1----29.95- 45.7 50.0----
2024-05-28 09:42 pm W 4.1 5.1----29.94- 45.7 49.8----
2024-05-28 09:36 pm W 2.9 6.0----29.94- 45.9 49.8----
2024-05-28 09:30 pm W 2.9 5.1----29.94- 46.0 49.6----
2024-05-28 09:24 pm W 2.9 5.1----29.94- 46.2 49.6----
2024-05-28 09:18 pm W 1.9 5.1----29.94- 46.2 49.8----
2024-05-28 09:12 pmWNW 2.9 6.0----29.94- 46.4 49.6----
2024-05-28 09:06 pm W 2.9 6.0----29.94- 46.4 49.5----
2024-05-28 09:00 pm--------- 46.4 49.3----
2024-05-28 08:54 pm--------- 46.4 49.1----
2024-05-28 08:48 pm W 5.1 6.0----29.94- 46.2-----
2024-05-28 08:42 pm W 4.1 6.0----29.94- 46.4-----
2024-05-28 08:36 pm W 1.9 8.9----29.94- 46.4-----
2024-05-28 08:30 pm W 2.9 6.0----29.94- 46.6 48.2----
2024-05-28 08:24 pm W 5.1 8.0----29.93- 46.6 47.3----
2024-05-28 08:18 pm W 4.1 7.0----29.93- 46.6 47.1----
2024-05-28 08:12 pm W 5.1 8.0----29.93- 46.6 47.1----
2024-05-28 08:06 pm W 6.0 8.9----29.93- 46.6 47.1----
2024-05-28 08:00 pm W 4.1 6.0----29.93+0.01 46.8 47.1----
2024-05-28 07:54 pm W 4.1 8.0----29.93- 46.8 47.1----
2024-05-28 07:48 pm W 4.1 8.0----29.93- 46.8 47.1----
2024-05-28 07:42 pm W 5.1 8.0----29.93- 46.8 47.3----
2024-05-28 07:36 pm W 5.1 8.0----29.93- 46.8 47.1----
2024-05-28 07:30 pm W 5.1 8.0----29.93- 46.6 46.9----
2024-05-28 07:24 pm W 5.1 8.9----29.93- 46.6 47.8----
2024-05-28 07:18 pm W 5.1 8.9----29.93- 46.6 47.8----
2024-05-28 07:12 pm W 5.1 8.9----29.93- 46.8 47.1----
2024-05-28 07:06 pm W 5.1 7.0----29.93- 46.8 46.9----
2024-05-28 07:00 pm W 6.0 9.9----29.93+0.02 46.8 48.2----
2024-05-28 06:54 pm W 5.1 8.0----29.93- 46.8 48.0----
2024-05-28 06:48 pm W 5.1 8.9----29.93- 46.8 46.4----
2024-05-28 06:42 pm W 7.0 8.9----29.93- 46.8 46.4----
2024-05-28 06:36 pm W 7.0 9.9----29.93- 46.8 47.7----
2024-05-28 06:30 pm W 7.0 12.0----29.93- 46.8 46.4----
2024-05-28 06:24 pm W 8.0 11.1----29.93- 46.8 46.8----
2024-05-28 06:18 pm W 8.0 11.1----29.93- 46.8 46.4----
2024-05-28 06:12 pm W 8.0 11.1----29.93- 46.8 46.4----
2024-05-28 06:06 pm W 8.0 12.0----29.93- 46.9 46.4----
2024-05-28 06:00 pm W 8.9 13.0----29.93+0.02 46.9 47.1----
2024-05-28 05:54 pm W 6.0 9.9----29.93- 46.9 46.2----
2024-05-28 05:48 pm W 6.0 9.9----29.93- 46.9 46.0----
2024-05-28 05:42 pm W 7.0 9.9----29.93- 46.9 46.0----
2024-05-28 05:36 pm W 5.1 9.9----29.93- 46.9 46.0----
2024-05-28 05:30 pm W 6.0 9.9----29.93- 47.1 47.3----
2024-05-28 05:24 pm W 7.0 12.0----29.92- 46.9 46.4----
2024-05-28 05:18 pm W 6.0 8.9----29.92- 46.9 46.0----
2024-05-28 05:12 pm W 7.0 11.1----29.92- 47.1 46.0----
2024-05-28 05:06 pm W 8.9 12.0----29.92- 46.9 46.0----
2024-05-28 05:00 pm W 8.0 12.0----29.92+0.02 46.9 46.0----
2024-05-28 04:54 pm W 8.0 12.0----29.92- 46.9 46.4----
2024-05-28 04:48 pm W 8.9 13.0----29.92- 46.9 47.7----
2024-05-28 04:42 pm W 8.0 13.0----29.92- 46.9 47.7----
2024-05-28 04:36 pm W 8.9 13.0----29.92- 46.9 48.0----
2024-05-28 04:30 pm W 11.1 15.0----29.92- 46.9 48.0----
2024-05-28 04:24 pm W 8.9 14.0----29.92- 47.1 47.8----
2024-05-28 04:18 pm W 9.9 15.0----29.91- 47.1 47.8----
2024-05-28 04:12 pm W 11.1 15.0----29.91- 46.9 47.8----
2024-05-28 04:06 pm W 12.0 14.0----29.91- 46.9 47.8----
2024-05-28 04:00 pm W 8.9 13.0----29.91+0.02 47.3 47.8----
2024-05-28 03:54 pm W 9.9 14.0----29.91- 47.1 47.8----
2024-05-28 03:48 pm W 9.9 15.9----29.91- 47.1 47.8----
2024-05-28 03:42 pm W 8.9 14.0----29.91- 47.1 48.0----
2024-05-28 03:36 pm W 8.9 12.0----29.91- 47.1 48.0----
2024-05-28 03:30 pm W 9.9 14.0----29.91- 47.1 48.0----
2024-05-28 03:24 pm W 9.9 14.0----29.91- 47.1 48.0----
2024-05-28 03:18 pm W 9.9 13.0----29.91- 47.1 47.8----
2024-05-28 03:12 pm W 8.0 13.0----29.91- 47.3 48.0----
2024-05-28 03:06 pm W 9.9 13.0----29.91- 47.1 48.2----
2024-05-28 03:00 pm W 8.9 13.0----29.91+0.01 47.3 48.2----
2024-05-28 02:54 pm W 8.0 11.1----29.91- 47.5 48.4----
2024-05-28 02:48 pm W 7.0 12.0----29.91- 47.3 48.4----
2024-05-28 02:42 pm W 8.0 12.0----29.91- 47.1 48.6----
2024-05-28 02:36 pm W 7.0 12.0----29.91- 47.1 48.7----
2024-05-28 02:30 pm-------29.91-- 48.7----
2024-05-28 02:24 pm-------29.91-- 48.7----
2024-05-28 02:18 pm W 8.0 9.9----29.91- 47.3 48.6----
2024-05-28 02:12 pm W 8.0 12.0----29.91- 47.3 48.2----
2024-05-28 02:06 pm W 7.0 12.0----29.90- 47.3 48.4----
2024-05-28 02:00 pm W 8.0 11.1----29.90+0.01- 48.2----
2024-05-28 01:54 pm W 8.9 13.0----29.90-- 48.4----
2024-05-28 01:48 pm W 8.9 13.0----29.90-- 48.4----
2024-05-28 01:42 pm W 8.9 11.1----29.90-- 48.4----
2024-05-28 01:36 pm W 8.9 13.0----29.90-- 49.1----
2024-05-28 01:30 pm W 8.0 12.0------------
2024-05-28 01:24 pm W 8.9 12.0------------
2024-05-28 01:18 pm W 8.0 13.0----29.90-- 50.0----
2024-05-28 01:12 pm W 8.9 12.0----29.90-- 50.0----
2024-05-28 01:06 pm W 8.9 12.0----29.90-- 50.0----
2024-05-28 01:00 pm W 7.0 9.9----29.90+0.01- 50.0----
2024-05-28 12:54 pmWSW 6.0 8.9----29.90-- 49.8----
2024-05-28 12:48 pmWSW 6.0 9.9----29.90-- 49.6----
2024-05-28 12:42 pmWSW 8.0 8.9----29.90-- 49.6----
2024-05-28 12:36 pmWSW 6.0 8.0----29.90-- 50.0----
2024-05-28 12:30 pm SW 5.1 6.0------------
2024-05-28 12:24 pmSSW 2.9 4.1------------
2024-05-28 12:18 pm SW 1.9 2.9----29.89-- 50.4----
2024-05-28 12:12 pm SW 1.9 2.9----29.89-- 50.4----
2024-05-28 12:06 pm SW 1.9 1.9----29.89-- 50.4----
2024-05-28 12:00 pm SW 1.0 1.9----29.89+0.01 45.5 50.2----
2024-05-28 11:54 am SW 1.0 1.9----29.89- 45.3 50.4----
2024-05-28 11:48 amWSW 1.9 1.9----29.89- 45.3 50.4----
2024-05-28 11:42 amWSW 1.0 1.9----29.89- 45.5 50.2----
2024-05-28 11:36 amWSW 1.0 1.9----29.89- 45.3 50.2----
2024-05-28 11:30 amWSW 1.0 1.9----29.89- 45.1 50.2----
2024-05-28 11:24 amWSW 1.0 1.9----29.89- 45.0 50.2----
2024-05-28 11:18 amWSW 1.0 1.9----29.89- 44.8 50.2----
2024-05-28 11:12 am SW 1.0 1.0----29.89- 44.8 50.2----
2024-05-28 11:06 amWSW 1.0 1.0----29.89- 44.6 50.2----
2024-05-28 11:00 am- 0.0 1.0----29.89+0.01 44.4 50.2----
2024-05-28 10:54 am SW 1.0 1.0----29.89- 43.9 50.4----
2024-05-28 10:48 am- 0.0 1.0----29.89- 44.2 50.2----
2024-05-28 10:42 am- 0.0 1.0----29.89- 43.7 50.2----
2024-05-28 10:36 am- 0.0 0.0----29.89- 44.2 50.2----
2024-05-28 10:30 am- 0.0 0.0----29.89- 44.2 50.4----
2024-05-28 10:24 am- 0.0 0.0----29.89- 45.1 50.4----
2024-05-28 10:18 am- 0.0 0.0----29.89- 44.6 50.4----
2024-05-28 10:12 am- 0.0 1.0----29.88- 44.2 50.2----
2024-05-28 10:06 am- 0.0 1.9----29.88- 44.1 50.4----
2024-05-28 10:00 amESE 1.9 1.9----29.88+0.01 44.1 50.5----
2024-05-28 09:54 amESE 1.9 1.9----29.88- 43.9 50.5----
2024-05-28 09:48 amESE 1.9 2.9----29.88- 43.7 50.4----
2024-05-28 09:42 amESE 2.9 2.9----29.88- 43.7 50.4----
2024-05-28 09:36 amESE 2.9 4.1----29.88- 43.7 50.4----
2024-05-28 09:30 am SE 2.9 2.9----29.88- 43.5 50.5----
2024-05-28 09:24 amESE 2.9 2.9----29.88- 43.7 50.2----
2024-05-28 09:18 am SE 1.9 2.9----29.88- 43.7 50.0----
2024-05-28 09:12 amESE 1.0 1.9----29.88- 44.1 49.6----
2024-05-28 09:06 am E 1.9 2.9----29.88- 44.1 48.9----
2024-05-28 09:00 amESE 2.9 2.9----29.88+0.01 43.9 48.9----
2024-05-28 08:54 amESE 1.9 2.9----29.88- 43.9 48.9----
2024-05-28 08:48 amESE 1.9 2.9----29.88- 43.9 48.9----
2024-05-28 08:42 amESE 2.9 2.9----29.88- 43.7 48.9----
2024-05-28 08:36 amESE 1.9 1.9----29.88- 43.9 48.7----
2024-05-28 08:30 amESE 1.9 2.9----29.88- 43.9 48.7----
2024-05-28 08:24 amESE 1.9 1.9----29.88- 44.1 48.7----
2024-05-28 08:18 amESE 1.9 1.9----29.87- 44.2 48.6----
2024-05-28 08:12 am E 1.0 1.9----29.87- 44.2 48.4----
2024-05-28 08:06 am E 1.0 1.9----29.87- 44.2 48.2----
2024-05-28 08:00 am E 1.0 2.9----29.87+0.01 44.1 48.2----
2024-05-28 07:54 am E 1.9 2.9----29.87- 44.1 47.8----
2024-05-28 07:48 amESE 2.9 2.9----29.87- 43.9 47.5----
2024-05-28 07:42 amESE 1.9 2.9----29.87- 44.1 47.5----
2024-05-28 07:36 amESE 2.9 2.9----29.87- 44.2 47.5----
2024-05-28 07:30 amESE 2.9 4.1----29.87- 44.2 47.3----
2024-05-28 07:24 am E 1.9 2.9----29.87- 44.4 46.2----
2024-05-28 07:18 am E 1.9 2.9----29.87- 44.6 46.2----
2024-05-28 07:12 am E 2.9 4.1----29.87- 44.2 46.4----
2024-05-28 07:06 am E 2.9 4.1----29.87- 44.2 47.8----
2024-05-28 07:00 amESE 4.1 4.1----29.87+0.00 44.1 47.8----
2024-05-28 06:54 am E 1.9 4.1----29.87- 44.4 46.6----
2024-05-28 06:48 amESE 1.0 2.9----29.86- 44.6 47.1----
2024-05-28 06:42 am E 1.9 2.9----29.86- 44.6 46.4----
2024-05-28 06:36 amESE 1.9 2.9----29.86- 44.6 47.1----
2024-05-28 06:30 amESE 1.9 2.9----29.86- 44.6 46.6----
2024-05-28 06:24 amESE 1.9 2.9----29.86- 44.4 46.4----
2024-05-28 06:18 amESE 2.9 2.9----29.86- 44.4 46.4----
2024-05-28 06:12 am E 1.9 2.9----29.86- 44.8 46.2----
2024-05-28 06:06 am E 1.9 2.9----29.86- 44.8 46.8----
2024-05-28 06:00 am E 1.9 1.9----29.86+0.00 44.8 46.9----
2024-05-28 05:54 am E 1.9 2.9----29.87- 44.8 47.1----
2024-05-28 05:48 amESE 1.9 2.9----29.87- 44.8 47.1----
2024-05-28 05:42 amESE 2.9 2.9----29.87- 44.8 46.9----
2024-05-28 05:36 amESE 2.9 2.9----29.86- 45.0 46.9----
2024-05-28 05:30 amESE 1.0 1.0----29.86- 45.1 47.1----
2024-05-28 05:24 am E 1.0 1.9----29.86- 45.1 47.7----
2024-05-28 05:18 am E 1.0 1.0----29.86- 45.1 47.7----
2024-05-28 05:12 amENE 1.0 1.9----29.86- 45.1 47.3----
2024-05-28 05:06 am E 1.9 2.9----29.86- 45.0 47.3----
2024-05-28 05:00 am E 1.9 2.9----29.86+0.00 45.0 47.1----
2024-05-28 04:54 am E 1.9 2.9----29.86- 44.8 45.9----
2024-05-28 04:48 am E 2.9 4.1----29.86- 44.8 46.9----
2024-05-28 04:42 am E 1.9 2.9----29.86- 44.8 47.1----
2024-05-28 04:36 am E 1.9 2.9----29.86- 44.8 46.8----
2024-05-28 04:30 am E 2.9 4.1----29.86- 44.8 46.6----
2024-05-28 04:24 am E 1.9 2.9----29.86- 45.7 46.8----
2024-05-28 04:18 am NE 1.0 1.9----29.87- 45.7 46.2----
2024-05-28 04:12 am SE 1.0 1.9----29.87- 45.5 46.0----
2024-05-28 04:06 am E 1.0 1.9----29.87- 45.7 46.0----
2024-05-28 04:00 am E 1.0 1.9----29.87+0.00 45.5 46.8----
2024-05-28 03:54 am E 1.9 1.9----29.87- 45.7 47.1----
2024-05-28 03:48 am- 0.0 1.9----29.87- 45.9 46.6----
2024-05-28 03:42 am E 1.9 4.1----29.87- 45.7 46.8----
2024-05-28 03:36 amESE 1.0 2.9----29.87- 46.0 47.1----
2024-05-28 03:30 am- 0.0 1.9----29.87- 46.2 46.9----
2024-05-28 03:24 am N 1.9 2.9----29.87- 46.0 46.8----
2024-05-28 03:18 am N 1.9 2.9----29.87- 46.0 46.8----
2024-05-28 03:12 am NE 2.9 4.1----29.87- 46.2 46.8----
2024-05-28 03:06 amNNE 2.9 2.9----29.87- 46.2 46.4----
2024-05-28 03:00 amNNE 2.9 2.9----29.87-0.01 46.2 46.4----
2024-05-28 02:54 amNNE 1.9 1.9----29.87- 46.0 46.6----
2024-05-28 02:48 amNNE 1.9 2.9----29.87- 46.0 46.6----
2024-05-28 02:42 amNNE 2.9 2.9----29.87- 46.0 46.6----
2024-05-28 02:36 am N 1.9 2.9----29.87- 46.0 46.8----
2024-05-28 02:30 amNNE 1.9 2.9----29.87- 46.2 46.9----
2024-05-28 02:24 am N 1.9 1.9----29.87- 46.2 47.1----
2024-05-28 02:18 am- 0.0 1.9----29.87- 46.6 47.1----
2024-05-28 02:12 am- 0.0 1.9----29.87- 46.6 46.9----
2024-05-28 02:06 am- 0.0 1.9----29.87- 46.4 47.1----
2024-05-28 02:00 am N 1.9 2.9----29.87-0.01 46.6 47.1----
2024-05-28 01:54 amNNW 1.0 2.9----29.87- 46.6 47.8----
2024-05-28 01:48 am N 1.0 2.9----29.87- 46.8 47.1----
2024-05-28 01:42 am- 0.0 1.9----29.87- 46.9 47.7----
2024-05-28 01:36 amNNW 1.9 1.9----29.87- 46.9 47.5----
2024-05-28 01:30 am- 0.0 1.9----29.87- 46.9 47.8----
2024-05-28 01:24 am N 1.0 2.9----29.87- 47.1 47.8----
2024-05-28 01:18 am- 0.0 2.9----29.87- 46.9 47.8----
2024-05-28 01:12 am NW 1.9 2.9----29.87- 47.3 47.7----
2024-05-28 01:06 am W 1.9 4.1----29.87- 47.7 47.8----
2024-05-28 01:00 am W 2.9 6.0----29.87+0.00 47.8 48.6----
2024-05-28 12:54 amWSW 2.9 5.1----29.87- 48.2 48.4----
2024-05-28 12:48 amWSW 2.9 5.1----29.87- 48.2 48.4----
2024-05-28 12:42 am- 0.0 1.9----29.88- 48.0 51.1----
2024-05-28 12:36 am NE 1.0 1.9----29.88- 47.8 51.1----
2024-05-28 12:30 amWSW 1.0 4.1----29.88- 48.0 50.9----
2024-05-28 12:24 am SW 4.1 5.1----29.88- 48.0 51.3----
2024-05-28 12:18 amWSW 2.9 5.1----29.88- 48.2 51.3----
2024-05-28 12:12 am W 1.0 4.1----29.88- 48.0 51.3----
2024-05-28 12:06 amWSW 2.9 5.1----29.88- 48.2 51.3----
2024-05-28 12:00 am W 1.9 6.0----29.88+0.00 48.2 51.3----
2024-05-27 11:54 pm SW 4.1 6.0----29.88- 48.4 51.3----